This is the latest recevied weather packets stored in our database for station/object WD8INF-9. If no packets are shown the sender has not sent any weather packets the latest 10 day(s).
| Time | Temp. | Humidity | Pressure | Rain* | Wind** | Luminosity | Snow |
|---|---|---|---|---|---|---|---|
| 1778017470 | 16.11° C | - | 1006.3 hPa | 0 mm | - | - | - |
| 1778017169 | 16.11° C | - | 1006 hPa | 0 mm | - | - | - |
| 1778016869 | 16.11° C | - | 1006.1 hPa | 0 mm | - | - | - |
| 1778016269 | 16.11° C | - | 1006.1 hPa | 0 mm | - | - | - |
| 1778015969 | 16.11° C | - | 1006.5 hPa | 0 mm | - | - | - |
| 1778015668 | 16.11° C | - | 1006.1 hPa | 0 mm | - | - | - |
| 1778015368 | 16.11° C | - | 1006.5 hPa | 0 mm | - | - | - |
| 1778015068 | 16.67° C | - | 1006.1 hPa | 0 mm | - | - | - |
| 1778014766 | 16.67° C | - | 1006.5 hPa | 0 mm | - | - | - |
| 1778014466 | 16.67° C | - | 1006.4 hPa | 0 mm | - | - | - |
| 1778014165 | 16.67° C | - | 1006.5 hPa | 0 mm | - | - | - |
| 1778013865 | 16.11° C | - | 1006.4 hPa | 0 mm | - | - | - |
| 1778013563 | 16.11° C | - | 1006.5 hPa | 0 mm | - | - | - |
| 1778013263 | 16.11° C | - | 1006.4 hPa | 0 mm | - | - | - |
| 1778012963 | 16.11° C | - | 1006.6 hPa | 0 mm | - | - | - |
| 1778012663 | 16.11° C | - | 1006.5 hPa | 0 mm | - | - | - |
| 1778012062 | 15.56° C | - | 1006.5 hPa | 0 mm | - | - | - |
| 1778011762 | 15.56° C | - | 1006.7 hPa | 0 mm | - | - | - |
| 1778011461 | 15.56° C | - | 1006.7 hPa | 0 mm | - | - | - |
| 1778011160 | 15.56° C | - | 1006.8 hPa | 0 mm | - | - | - |
| 1778010860 | 15.56° C | - | 1007.1 hPa | 0 mm | - | - | - |
| 1778010560 | 15.56° C | - | 1006.8 hPa | 0 mm | - | - | - |
| 1778010260 | 17.22° C | - | 1006.7 hPa | 0 mm | - | - | - |
| 1778009960 | 18.33° C | - | 1006 hPa | 0 mm | - | - | - |
| 1778009659 | 20.56° C | - | 1006.1 hPa | 0 mm | - | - | - |
* Rain since midnight (hover to see other rain measurements)
** Current wind speed in m/s (hover to see current wind gust speed)